Regional Weather Roundup
Issued by NWS

Home | Current Version | Previous Version | Text Only | Print | Product List | Glossary On
Versions: 1 2 3 4 5 6 7 8 9 10 11 12 13 14 15 16 17 18 19 20 21 22 23 24 25 26 27 28 29 30 31 32 33 34 35 36 37 38 39 40 41 42 43 44 45 46 47 48 49 50
000
ASUS45 KSLC 220810
RWRUT

UTAH REGIONAL WEATHER ROUNDUP
NATIONAL WEATHER SERVICE SALT LAKE CITY UT
100 AM MST MON DEC 22 2014

UTZ001>011-023>025-220900-

NORTHERN UTAH

CITY           SKY/WX    TMP DP  RH WIND       PRES   REMARKS
BRIGHAM CITY   CLOUDY    41  33  74 CALM      30.02S
HILL AFB       CLOUDY    39  32  75 SW5       30.02F
LOGAN          CLOUDY    40  30  67 CALM      30.00F
OGDEN          CLOUDY    42  34  73 CALM      30.02S
PROVO AIRPORT  CLOUDY    41  36  81 W7        30.05S
SALT LAKE CITY LGT RAIN  43  36  76 NW3       30.03F
VERNAL         CLOUDY    34  30  85 W7        29.86S WCI  28
WENDOVER       PTCLDY    50  34  53 NW17G23   30.04R
HEBER CITY     CLOUDY    37  32  81 E5        29.99R WCI  34
WEST JORDAN    CLOUDY    43  37  81 NW10      30.05S

$$

UTZ012>022-026-027-220900-

SOUTHERN/CENTRAL UTAH

CITY           SKY/WX    TMP DP  RH WIND       PRES   REMARKS
BLANDING       PTCLDY    34  31  90 S5        30.01F WCI  30
BRYCE CANYON   MOCLDY    39  32  76 NW16      30.08F WCI  30
CEDAR CITY     PTCLDY    39  32  76 SE9       30.08R WCI  33
DELTA          CLOUDY    43  40  92 N12       30.06S
MILFORD        CLOUDY    37  32  82 S8        30.05S WCI  31
MOAB/CYNLANDS  CLEAR     32  31  96 W5        29.92F WCI  27
PRICE          MOCLDY    42  30  62 NW14G20   29.92F
ST GEORGE      CLOUDY    41  34  75 CALM      30.10S
KANAB          CLEAR     30  30 100 NE3       30.12F

$$

REGIONAL REPORTS     COLORADO/ARIZONA

CITY           SKY/WX    TMP DP  RH WIND       PRES   REMARKS
CRAIG, CO      CLOUDY    34  28  79 W10       29.84R WCI  26
GRAND JUNCTION CLOUDY    33  32  96 CALM      29.88F
RIFLE          CLOUDY    34  32  92 W22       29.84R WCI  22
MONTROSE       CLOUDY    30  29  96 SE7       29.91R FOG     WCI  23
CORTEZ         CLEAR     30  28  92 NE3       29.95F
PAGE, AZ       CLEAR     39  31  72 E5        30.01F
GRAND CANYON   PTCLDY    27  26  96 CALM      30.14S
KINGMAN        PTCLDY    39  35  86 SE3       30.09F
FLAGSTAFF      PTCLDY    41  30  65 VRB5      30.12S

$$

REGIONAL REPORTS    NEVADA/IDAHO/WYOMING

CITY           SKY/WX    TMP DP  RH WIND       PRES   REMARKS
LAS VEGAS, NV  CLOUDY    48  39  71 SW7       30.04S
ELY            LGT RAIN  43  39  86 SW3       30.18S
ELKO           CLOUDY    45  42  89 W12       30.12F
POCATELLO, ID  CLOUDY    36  34  92 SW23      29.99F WCI  24
BURLEY         LGT RAIN  36  32  85 W18G29    30.02R WCI  26
EVANSTON, WY   CLOUDY    32  28  85 W13       29.96F WCI  22
ROCK SPRINGS   PTCLDY    28  24  85 W16       29.84F WCI  16
KEMMERER       CLOUDY    30  27  86 W17G24    29.89F WCI  18

$$



USA.gov is the U.S. government's official web portal to all federal, state and local government web resources and services.